Time,TemperatureF,DewpointF,PressureIn,WindDirection,WindDirectionDegrees,WindSpeedMPH,WindSpeedGustMPH,Humidity,HourlyPrecipIn,Conditions,Clouds,dailyrainin,SoftwareType,DateUTC
2013-03-18 00:07:00,67.3,61.0,30.05,SE,146,4.0,9.0,80,0.00,,,0.00,weatherlink.com 1.10,2013-03-18 04:07:00,
2013-03-18 00:22:00,67.2,61.0,30.05,East,97,4.0,9.0,79,0.00,,,0.00,weatherlink.com 1.10,2013-03-18 04:22:00,
2013-03-18 00:37:00,67.1,60.0,30.05,ESE,111,4.0,8.0,79,0.00,,,0.00,weatherlink.com 1.10,2013-03-18 04:37:00,
2013-03-18 00:52:00,67.0,60.0,30.04,ENE,77,5.0,8.0,78,0.00,,,0.00,weatherlink.com 1.10,2013-03-18 04:52:00,
2013-03-18 01:07:00,67.1,60.0,30.04,NW,305,3.0,8.0,77,0.00,,,0.00,weatherlink.com 1.10,2013-03-18 05:07:00,
2013-03-18 01:22:00,67.1,60.0,30.03,SE,129,4.0,9.0,77,0.00,,,0.00,weatherlink.com 1.10,2013-03-18 05:22:00,
2013-03-18 01:37:00,67.5,60.0,30.01,East,84,4.0,10.0,76,0.00,,,0.00,weatherlink.com 1.10,2013-03-18 05:37:00,
2013-03-18 01:52:00,67.5,60.0,30.02,SSE,158,6.0,14.0,76,0.00,,,0.00,weatherlink.com 1.10,2013-03-18 05:52:00,
2013-03-18 02:07:00,67.1,60.0,30.03,NE,46,7.0,9.0,77,0.00,,,0.00,weatherlink.com 1.10,2013-03-18 06:07:00,
2013-03-18 02:22:00,66.8,60.0,30.03,ESE,108,2.0,7.0,78,0.00,,,0.00,weatherlink.com 1.10,2013-03-18 06:22:00,
2013-03-18 02:37:00,66.5,60.0,30.04,East,101,4.0,5.0,79,0.00,,,0.00,weatherlink.com 1.10,2013-03-18 06:37:00,
2013-03-18 02:52:00,66.1,60.0,30.04,SE,129,1.0,4.0,80,0.00,,,0.00,weatherlink.com 1.10,2013-03-18 06:52:00,
2013-03-18 03:07:00,65.5,60.0,30.04,ENE,63,0.0,3.0,81,0.00,,,0.00,weatherlink.com 1.10,2013-03-18 07:07:00,
2013-03-18 03:22:00,65.1,60.0,30.04,SE,146,0.0,3.0,82,0.00,,,0.00,weatherlink.com 1.10,2013-03-18 07:22:00,
2013-03-18 03:37:00,65.0,60.0,30.04,East,96,3.0,3.0,84,0.00,,,0.00,weatherlink.com 1.10,2013-03-18 07:37:00,
2013-03-18 03:52:00,65.1,60.0,30.03,ENE,65,3.0,5.0,84,0.00,,,0.00,weatherlink.com 1.10,2013-03-18 07:52:00,
2013-03-18 04:07:00,64.3,60.0,30.04,NNE,31,2.0,5.0,86,0.00,,,0.00,weatherlink.com 1.10,2013-03-18 08:07:00,
2013-03-18 04:22:00,63.8,60.0,30.03,NE,41,3.0,4.0,87,0.00,,,0.00,weatherlink.com 1.10,2013-03-18 08:22:00,
2013-03-18 04:37:00,63.7,60.0,30.03,ENE,65,3.0,7.0,88,0.00,,,0.00,weatherlink.com 1.10,2013-03-18 08:37:00,
2013-03-18 04:52:00,63.6,60.0,30.03,ESE,123,2.0,4.0,87,0.00,,,0.00,weatherlink.com 1.10,2013-03-18 08:52:00,
2013-03-18 05:07:00,63.7,60.0,30.03,East,101,3.0,4.0,88,0.00,,,0.00,weatherlink.com 1.10,2013-03-18 09:07:00,
2013-03-18 05:22:00,63.5,60.0,30.02,East,101,3.0,5.0,88,0.00,,,0.00,weatherlink.com 1.10,2013-03-18 09:22:00,
2013-03-18 05:37:00,63.7,61.0,30.03,ESE,120,2.0,5.0,89,0.00,,,0.00,weatherlink.com 1.10,2013-03-18 09:37:00,
2013-03-18 05:52:00,63.8,60.0,30.03,ESE,120,3.0,5.0,88,0.00,,,0.00,weatherlink.com 1.10,2013-03-18 09:52:00,
2013-03-18 06:07:00,63.8,61.0,30.04,East,96,3.0,5.0,89,0.00,,,0.00,weatherlink.com 1.10,2013-03-18 10:07:00,
2013-03-18 06:22:00,63.7,60.0,30.04,East,79,4.0,6.0,88,0.00,,,0.00,weatherlink.com 1.10,2013-03-18 10:22:00,
2013-03-18 06:37:00,63.8,60.0,30.04,East,90,2.0,5.0,88,0.00,,,0.00,weatherlink.com 1.10,2013-03-18 10:37:00,
2013-03-18 06:52:00,63.9,60.0,30.05,ENE,65,3.0,4.0,88,0.00,,,0.00,weatherlink.com 1.10,2013-03-18 10:52:00,
2013-03-18 07:07:00,63.7,60.0,30.05,East,83,2.0,4.0,88,0.00,,,0.00,weatherlink.com 1.10,2013-03-18 11:07:00,
2013-03-18 07:22:00,63.6,60.0,30.05,SE,132,2.0,4.0,88,0.00,,,0.00,weatherlink.com 1.10,2013-03-18 11:22:00,
2013-03-18 07:37:00,63.7,60.0,30.05,ESE,117,4.0,7.0,87,0.00,,,0.00,weatherlink.com 1.10,2013-03-18 11:37:00,
2013-03-18 07:52:00,63.7,60.0,30.05,East,94,1.0,6.0,88,0.00,,,0.00,weatherlink.com 1.10,2013-03-18 11:52:00,
2013-03-18 08:07:00,63.9,60.0,30.05,East,90,2.0,6.0,88,0.00,,,0.00,weatherlink.com 1.10,2013-03-18 12:07:00,
2013-03-18 08:22:00,64.8,61.0,30.04,SSE,154,6.0,11.0,87,0.00,,,0.00,weatherlink.com 1.10,2013-03-18 12:22:00,
2013-03-18 08:37:00,65.6,61.0,30.03,SE,131,5.0,13.0,86,0.00,,,0.00,weatherlink.com 1.10,2013-03-18 12:37:00,
2013-03-18 08:52:00,66.3,62.0,30.04,SE,125,11.0,15.0,85,0.00,,,0.00,weatherlink.com 1.10,2013-03-18 12:52:00,
2013-03-18 09:07:00,66.7,62.0,30.04,East,96,5.0,11.0,85,0.00,,,0.00,weatherlink.com 1.10,2013-03-18 13:07:00,
2013-03-18 09:37:00,68.0,63.0,30.04,NNE,12,5.0,16.0,83,0.00,,,0.00,weatherlink.com 1.10,2013-03-18 13:37:00,
2013-03-18 09:52:00,68.1,63.0,30.04,East,101,10.0,16.0,84,0.00,,,0.00,weatherlink.com 1.10,2013-03-18 13:52:00,
2013-03-18 10:08:00,68.6,64.0,30.04,ESE,119,6.0,17.0,84,0.00,,,0.00,weatherlink.com 1.10,2013-03-18 14:08:00,
2013-03-18 10:23:00,68.8,64.0,30.04,ENE,68,10.0,14.0,84,0.00,,,0.00,weatherlink.com 1.10,2013-03-18 14:23:00,
2013-03-18 10:38:00,69.9,65.0,30.05,ENE,71,8.0,15.0,83,0.00,,,0.00,weatherlink.com 1.10,2013-03-18 14:38:00,
2013-03-18 10:53:00,70.4,65.0,30.05,SE,124,11.0,15.0,83,0.00,,,0.00,weatherlink.com 1.10,2013-03-18 14:53:00,
2013-03-18 11:08:00,70.9,66.0,30.05,SE,140,5.0,11.0,83,0.00,,,0.00,weatherlink.com 1.10,2013-03-18 15:08:00,
2013-03-18 11:23:00,71.8,66.0,30.05,ESE,114,3.0,15.0,82,0.00,,,0.00,weatherlink.com 1.10,2013-03-18 15:23:00,
2013-03-18 11:38:00,72.0,66.0,30.04,East,98,2.0,10.0,82,0.00,,,0.00,weatherlink.com 1.10,2013-03-18 15:38:00,
2013-03-18 11:53:00,72.1,66.0,30.05,NNE,19,7.0,16.0,82,0.00,,,0.00,weatherlink.com 1.10,2013-03-18 15:53:00,
2013-03-18 12:08:00,71.9,66.0,30.05,SW,232,10.0,18.0,82,0.00,,,0.00,weatherlink.com 1.10,2013-03-18 16:08:00,
2013-03-18 12:23:00,71.6,66.0,30.06,WSW,242,11.0,16.0,83,0.00,,,0.00,weatherlink.com 1.10,2013-03-18 16:23:00,
2013-03-18 12:38:00,71.6,66.0,30.07,SE,146,9.0,19.0,83,0.00,,,0.00,weatherlink.com 1.10,2013-03-18 16:38:00,
2013-03-18 12:53:00,70.9,66.0,30.05,NNW,344,6.0,15.0,83,0.00,,,0.00,weatherlink.com 1.10,2013-03-18 16:53:00,
2013-03-18 13:08:00,70.5,66.0,30.05,SE,124,4.0,15.0,85,0.00,,,0.00,weatherlink.com 1.10,2013-03-18 17:08:00,
2013-03-18 13:23:00,71.0,66.0,30.04,SE,143,10.0,15.0,84,0.00,,,0.00,weatherlink.com 1.10,2013-03-18 17:23:00,
2013-03-18 13:38:00,71.1,66.0,30.03,NE,50,9.0,15.0,84,0.00,,,0.00,weatherlink.com 1.10,2013-03-18 17:38:00,
2013-03-18 13:53:00,71.4,66.0,30.03,SSE,153,6.0,17.0,84,0.00,,,0.00,weatherlink.com 1.10,2013-03-18 17:53:00,
2013-03-18 14:08:00,71.2,66.0,30.02,SE,143,13.0,20.0,84,0.00,,,0.00,weatherlink.com 1.10,2013-03-18 18:08:00,
2013-03-18 14:23:00,70.9,66.0,30.01,ESE,103,13.0,24.0,85,0.00,,,0.00,weatherlink.com 1.10,2013-03-18 18:23:00,
2013-03-18 14:38:00,70.7,67.0,29.99,ESE,122,6.0,23.0,87,0.00,,,0.00,weatherlink.com 1.10,2013-03-18 18:38:00,
2013-03-18 14:53:00,71.0,67.0,29.99,SE,124,5.0,25.0,88,0.00,,,0.00,weatherlink.com 1.10,2013-03-18 18:53:00,
2013-03-18 15:08:00,70.4,67.0,29.98,SSE,158,10.0,21.0,89,0.00,,,0.00,weatherlink.com 1.10,2013-03-18 19:08:00,
2013-03-18 15:23:00,70.3,67.0,29.96,SSE,165,3.0,16.0,89,0.00,,,0.00,weatherlink.com 1.10,2013-03-18 19:23:00,
2013-03-18 15:38:00,70.6,68.0,29.98,SE,129,2.0,10.0,90,0.00,,,0.00,weatherlink.com 1.10,2013-03-18 19:38:00,
2013-03-18 15:53:00,70.7,68.0,29.98,SSE,147,6.0,9.0,90,0.00,,,0.00,weatherlink.com 1.10,2013-03-18 19:53:00,
2013-03-18 16:08:00,70.6,67.0,29.97,SSE,156,4.0,12.0,89,0.00,,,0.00,weatherlink.com 1.10,2013-03-18 20:08:00,
2013-03-18 16:23:00,70.6,67.0,29.96,South,188,4.0,12.0,89,0.00,,,0.00,weatherlink.com 1.10,2013-03-18 20:23:00,
2013-03-18 16:38:00,69.9,67.0,29.98,SSW,207,5.0,9.0,89,0.00,,,0.00,weatherlink.com 1.10,2013-03-18 20:38:00,
2013-03-18 16:53:00,68.7,66.0,29.97,SSW,200,9.0,16.0,91,0.00,,,0.00,weatherlink.com 1.10,2013-03-18 20:53:00,
2013-03-18 17:09:00,68.5,66.0,29.97,South,169,11.0,14.0,91,0.00,,,0.00,weatherlink.com 1.10,2013-03-18 21:09:00,
2013-03-18 17:23:00,68.8,66.0,29.97,SSW,200,5.0,10.0,91,0.00,,,0.00,weatherlink.com 1.10,2013-03-18 21:23:00,
2013-03-18 17:38:00,68.7,66.0,29.96,SSW,205,7.0,10.0,92,0.00,,,0.00,weatherlink.com 1.10,2013-03-18 21:38:00,
2013-03-18 17:53:00,68.6,66.0,29.96,SSE,148,3.0,9.0,92,0.00,,,0.00,weatherlink.com 1.10,2013-03-18 21:53:00,
2013-03-18 18:08:00,68.5,66.0,29.96,South,175,5.0,9.0,92,0.00,,,0.00,weatherlink.com 1.10,2013-03-18 22:08:00,
2013-03-18 18:23:00,68.1,66.0,29.96,SE,125,3.0,11.0,92,0.00,,,0.00,weatherlink.com 1.10,2013-03-18 22:23:00,
2013-03-18 18:38:00,67.7,65.0,29.96,ESE,108,2.0,15.0,92,0.00,,,0.00,weatherlink.com 1.10,2013-03-18 22:38:00,
2013-03-18 18:53:00,67.2,65.0,29.97,SSE,155,7.0,10.0,93,0.00,,,0.00,weatherlink.com 1.10,2013-03-18 22:53:00,
2013-03-18 19:09:00,66.7,65.0,29.99,SSW,212,2.0,6.0,93,0.00,,,0.00,weatherlink.com 1.10,2013-03-18 23:09:00,
2013-03-18 19:23:00,66.2,65.0,29.99,WSW,255,5.0,6.0,94,0.00,,,0.00,weatherlink.com 1.10,2013-03-18 23:23:00,
2013-03-18 19:39:00,66.0,65.0,30.00,WSW,256,3.0,5.0,95,0.00,,,0.00,weatherlink.com 1.10,2013-03-18 23:39:00,
2013-03-18 19:54:00,65.9,65.0,30.00,WNW,285,4.0,4.0,95,0.00,,,0.00,weatherlink.com 1.10,2013-03-18 23:54:00,
2013-03-18 20:09:00,65.9,65.0,29.99,SSW,200,1.0,3.0,95,0.00,,,0.00,weatherlink.com 1.10,2013-03-19 00:09:00,
2013-03-18 20:24:00,65.9,64.0,29.98,SW,219,3.0,5.0,94,0.00,,,0.00,weatherlink.com 1.10,2013-03-19 00:24:00,
2013-03-18 20:39:00,65.8,64.0,29.99,SSE,148,3.0,6.0,95,0.00,,,0.00,weatherlink.com 1.10,2013-03-19 00:39:00,
2013-03-18 20:54:00,65.6,64.0,29.98,SE,146,6.0,10.0,95,0.00,,,0.00,weatherlink.com 1.10,2013-03-19 00:54:00,
2013-03-18 21:09:00,65.9,65.0,29.96,SE,131,7.0,17.0,95,0.00,,,0.00,weatherlink.com 1.10,2013-03-19 01:09:00,
2013-03-18 21:24:00,66.2,65.0,29.91,WSW,246,17.0,29.0,94,0.00,,,0.00,weatherlink.com 1.10,2013-03-19 01:24:00,
2013-03-18 21:39:00,66.3,64.0,29.93,SSE,158,20.0,33.0,93,0.00,,,0.00,weatherlink.com 1.10,2013-03-19 01:39:00,
2013-03-18 21:54:00,66.7,64.0,29.95,South,177,12.0,18.0,92,0.00,,,0.00,weatherlink.com 1.10,2013-03-19 01:54:00,
2013-03-18 22:09:00,66.7,65.0,29.95,South,179,8.0,17.0,93,0.00,,,0.00,weatherlink.com 1.10,2013-03-19 02:09:00,
2013-03-18 22:24:00,66.9,65.0,29.95,NNE,25,9.0,22.0,93,0.00,,,0.00,weatherlink.com 1.10,2013-03-19 02:24:00,
2013-03-18 22:39:00,66.7,65.0,29.96,WNW,284,3.0,15.0,93,0.00,,,0.00,weatherlink.com 1.10,2013-03-19 02:39:00,
2013-03-18 22:54:00,66.5,65.0,29.94,SSE,158,2.0,5.0,93,0.00,,,0.00,weatherlink.com 1.10,2013-03-19 02:54:00,
2013-03-18 23:09:00,66.6,65.0,29.94,SE,125,7.0,9.0,94,0.00,,,0.00,weatherlink.com 1.10,2013-03-19 03:09:00,
2013-03-18 23:24:00,66.6,65.0,29.95,ESE,117,2.0,5.0,94,0.00,,,0.00,weatherlink.com 1.10,2013-03-19 03:24:00,
2013-03-18 23:39:00,66.7,65.0,29.94,East,84,2.0,9.0,94,0.00,,,0.00,weatherlink.com 1.10,2013-03-19 03:39:00,
2013-03-18 23:54:00,66.9,65.0,29.94,ESE,113,3.0,10.0,94,0.00,,,0.00,weatherlink.com 1.10,2013-03-19 03:54:00,